EW8108 Weather Reports


time (UTC)temp
F
wind
direction
speed
knots
gust
knots
rain 1hr
in
rain 24hr
in
rain mn
in
humidity
%
barometer
mb
20260502203957 76 190 0.0 0.9 0.00 0.00 0.00 42 981.6
20260502203011 76 50 0.0 3.5 0.00 0.00 0.00 40 981.7
20260502202029 76 330 0.0 2.6 0.00 0.00 0.00 43 981.8
20260502201029 77 285 0.0 0.0 0.00 0.00 0.00 50 981.9
20260502200038 76 297 0.0 0.9 0.00 0.00 0.00 51 981.9
20260502195005 76 313 0.0 0.0 0.00 0.00 0.00 48 982.0
20260502194022 76 315 0.0 0.0 0.00 0.00 0.00 49 981.9
20260502193039 76 317 0.0 0.0 0.00 0.00 0.00 50 982.0
20260502190923 75 307 0.0 0.0 0.00 0.00 0.00 51 982.1
20260502185937 75 301 0.0 0.0 0.00 0.00 0.00 54 982.2
20260502184934 74 301 0.0 0.0 0.00 0.00 0.00 55 982.2
20260502183940 73 296 0.0 0.0 0.00 0.00 0.00 57 982.4
20260502181921 74 321 0.0 0.0 0.00 0.00 0.00 57 982.5
20260502162703 69 168 0.0 0.0 0.00 0.00 0.00 61 983.7
20260502160545 68 170 0.0 0.0 0.00 0.00 0.00 62 983.8
20260502150538 64 171 0.0 0.0 0.00 0.00 0.00 22 983.6
20260502123715 48 171 0.0 0.0 0.00 0.00 0.00 1 982.1
20260502122739 48 171 0.0 0.0 0.00 0.00 0.00 1 981.9
20260502121754 48 171 0.0 0.0 0.00 0.00 0.00 1 981.8
20260502120725 48 171 0.0 0.0 0.00 0.00 0.00 1 981.7
20260502115721 48 171 0.0 0.0 0.00 0.00 0.00 1 981.4
20260502113555 48 171 0.0 0.0 0.00 0.00 0.00 1 981.2
20260502112616 48 171 0.0 0.0 0.00 0.00 0.00 1 981.1
20260502111625 49 171 0.0 0.0 0.00 0.00 0.00 1 981.1
20260502110559 49 171 0.0 0.0 0.00 0.00 0.00 1 980.8
20260502105617 49 171 0.0 0.0 0.00 0.00 0.00 1 980.8
20260502104614 49 171 0.0 0.0 0.00 0.00 0.00 1 980.5
20260502102528 49 171 0.0 0.0 0.00 0.00 0.00 1 980.1
20260502100319 50 171 0.0 0.0 0.00 0.00 0.00 1 979.7
20260502064534 51 171 0.0 0.0 0.00 0.00 0.00 1 979.3
20260502062441 51 171 0.0 0.0 0.00 0.00 0.00 1 979.1
20260502061426 51 171 0.0 0.0 0.00 0.00 0.00 1 979.1
20260502060438 52 171 0.0 0.0 0.00 0.00 0.00 1 979.4
20260502055432 52 171 0.0 0.0 0.00 0.00 0.00 1 979.4
20260502054439 52 171 0.0 0.0 0.00 0.00 0.00 1 979.4
20260502053408 52 171 0.0 0.0 0.00 0.00 0.00 1 979.3
20260502051235 52 171 0.0 0.0 0.00 0.00 0.00 1 979.0
20260502050239 52 171 0.0 0.0 0.00 0.00 0.00 1 979.1
20260502045234 52 171 0.0 0.0 0.00 0.00 0.00 1 979.1
20260502044252 53 171 0.0 0.0 0.00 0.00 0.00 1 979.1
20260502043244 53 171 0.0 0.0 0.00 0.00 0.00 1 979.0
20260502042258 53 171 0.0 0.0 0.00 0.00 0.00 1 979.1
20260502041306 53 171 0.0 0.0 0.00 0.00 0.00 1 979.0
20260502040245 53 171 0.0 0.0 0.00 0.00 0.00 1 979.1
20260502035251 53 171 0.0 0.0 0.00 0.00 0.00 1 979.0
20260502034219 53 171 0.0 0.0 0.00 0.00 0.00 1 979.1
20260502033211 53 171 0.0 0.0 0.00 0.00 0.00 1 979.1
20260502032138 53 172 0.0 0.0 0.00 0.00 0.00 1 979.0
20260502031203 54 172 0.0 0.0 0.00 0.00 0.00 1 978.9
20260502030206 54 172 0.0 0.0 0.00 0.00 0.00 1 978.7
20260502025141 54 172 0.0 0.0 0.00 0.00 0.00 1 978.5
20260502024140 54 172 0.0 0.0 0.00 0.00 0.00 1 978.4
20260502023203 54 172 0.0 0.0 0.00 0.00 0.00 1 978.2
20260502015931 54 169 0.0 0.0 0.00 0.00 0.00 1 977.8
20260502014952 54 169 0.0 0.0 0.00 0.00 0.00 1 977.6
20260502014007 54 170 0.0 0.0 0.00 0.00 0.00 1 977.3
20260502011923 54 170 0.0 0.0 0.00 0.00 0.00 1 977.0
20260502010923 54 170 0.0 0.9 0.00 0.00 0.00 1 976.9
20260502004736 54 171 0.0 0.0 0.00 0.00 0.00 1 976.4
20260502002559 54 179 0.0 0.0 0.00 0.00 0.00 1 976.0
20260502001555 54 183 0.0 1.7 0.00 0.00 0.00 1 975.8
20260502000542 54 168 0.0 0.9 0.00 0.00 0.00 1 975.7
20260501235544 54 160 0.0 0.0 0.00 0.00 0.00 1 975.6
20260501234603 54 290 0.0 0.9 0.00 0.00 0.00 1 975.7
20260501232412 55 325 0.0 0.9 0.00 0.00 0.00 1 975.3
20260501231349 55 313 0.0 0.0 0.00 0.00 0.00 1 975.0
20260501230332 56 300 0.0 0.0 0.00 0.00 0.00 1 975.3
20260501225344 56 355 0.0 2.6 0.00 0.00 0.00 1 975.3
20260501224309 56 77 0.0 0.9 0.00 0.00 0.00 1 975.3
20260501223239 56 53 0.0 0.0 0.00 0.00 0.00 1 974.9
20260501222245 56 67 0.0 0.9 0.00 0.00 0.00 1 974.8
20260501220059 56 71 0.0 1.7 0.00 0.00 0.00 1 974.9
20260501213949 56 21 0.0 0.0 0.00 0.00 0.00 1 975.2
20260501211816 56 22 0.0 0.0 0.00 0.00 0.00 1 974.3
20260501205711 57 26 0.0 0.0 0.00 0.00 0.00 1 974.0